TimeEST,TemperatureF,Dew PointF,Humidity,Sea Level PressureIn,VisibilityMPH,Wind Direction,Wind SpeedMPH,Gust SpeedMPH,PrecipitationIn,Events,Conditions,WindDirDegrees,DateUTC
12:54 AM,62.6,60.8,94,29.83,12.0,SSW,10.4,-,N/A,,Mostly Cloudy,200,2014-01-06 05:54:00
12:56 AM,62.1,61.2,97,29.83,12.0,SSW,10.4,-,N/A,,Mostly Cloudy,200,2014-01-06 05:56:00
1:25 AM,62.6,62.6,100,29.82,12.0,SSW,9.2,-,N/A,,Mostly Cloudy,210,2014-01-06 06:25:00
1:56 AM,62.2,61.3,97,29.80,12.0,SSW,9.2,-,N/A,,Partly Cloudy,200,2014-01-06 06:56:00
2:42 AM,60.8,59.0,94,29.79,12.0,South,8.1,-,N/A,,Mostly Cloudy,190,2014-01-06 07:42:00
2:56 AM,59.7,58.6,96,29.78,9.0,South,10.4,-,N/A,,Mostly Cloudy,180,2014-01-06 07:56:00
3:07 AM,59.0,59.0,100,29.78,5.0,South,10.4,-,N/A,,Mostly Cloudy,180,2014-01-06 08:07:00
3:56 AM,59.7,59.4,99,29.76,12.0,SSW,11.5,-,N/A,,Partly Cloudy,200,2014-01-06 08:56:00
4:56 AM,62.8,61.3,95,29.73,12.0,SSW,12.7,23.0,N/A,,Mostly Cloudy,210,2014-01-06 09:56:00
5:01 AM,62.6,62.6,100,29.73,12.0,SSW,13.8,23.0,N/A,,Mostly Cloudy,210,2014-01-06 10:01:00
5:25 AM,64.4,62.6,94,29.72,12.0,SSW,12.7,21.9,N/A,,Mostly Cloudy,210,2014-01-06 10:25:00
5:42 AM,64.4,62.6,94,29.72,12.0,SW,17.3,23.0,N/A,,Mostly Cloudy,220,2014-01-06 10:42:00
5:56 AM,64.0,62.4,94,29.72,12.0,SSW,16.1,24.2,N/A,,Mostly Cloudy,210,2014-01-06 10:56:00
6:07 AM,64.4,62.6,94,29.72,12.0,SSW,17.3,24.2,N/A,,Scattered Clouds,210,2014-01-06 11:07:00
6:56 AM,64.6,62.6,93,29.71,12.0,SSW,17.3,23.0,N/A,,Mostly Cloudy,200,2014-01-06 11:56:00
7:07 AM,64.4,62.6,94,29.71,12.0,SSW,16.1,23.0,N/A,,Mostly Cloudy,210,2014-01-06 12:07:00
7:19 AM,66.2,64.4,94,29.71,12.0,SW,16.1,33.4,N/A,,Mostly Cloudy,220,2014-01-06 12:19:00
7:56 AM,66.4,63.3,90,29.71,12.0,SW,20.7,29.9,N/A,,Mostly Cloudy,220,2014-01-06 12:56:00
8:07 AM,66.2,62.6,88,29.71,12.0,SW,20.7,28.8,N/A,,Scattered Clouds,230,2014-01-06 13:07:00
8:56 AM,67.5,62.8,85,29.70,12.0,SW,17.3,29.9,N/A,,Partly Cloudy,220,2014-01-06 13:56:00
9:56 AM,68.7,61.7,78,29.69,12.0,SW,20.7,32.2,N/A,,Clear,220,2014-01-06 14:56:00
10:56 AM,68.9,60.3,74,29.66,12.0,SW,19.6,34.5,N/A,,Partly Cloudy,220,2014-01-06 15:56:00
11:56 AM,67.1,59.2,76,29.62,12.0,WSW,18.4,33.4,N/A,,Mostly Cloudy,240,2014-01-06 16:56:00
12:56 PM,65.5,58.8,79,29.61,12.0,SW,15.0,25.3,N/A,,Mostly Cloudy,230,2014-01-06 17:56:00
1:04 PM,64.4,59.0,83,29.64,12.0,West,18.4,39.1,N/A,,Mostly Cloudy,280,2014-01-06 18:04:00
1:05 PM,64.4,55.4,73,29.64,12.0,WNW,23.0,39.1,N/A,Rain,Light Rain,300,2014-01-06 18:05:00
1:16 PM,53.6,50.0,88,29.66,12.0,NW,19.6,27.6,N/A,Rain,Light Rain Showers,320,2014-01-06 18:16:00
1:56 PM,51.4,49.8,94,29.68,12.0,WNW,10.4,-,0.01,Rain,Light Rain Showers,300,2014-01-06 18:56:00
3:56 PM,42.8,39.0,86,29.75,12.0,NW,11.5,-,0.01,,Overcast,310,2014-01-06 20:56:00
4:13 PM,42.8,39.2,87,29.76,12.0,WNW,10.4,15.0,N/A,,Mostly Cloudy,300,2014-01-06 21:13:00
4:19 PM,42.8,39.2,87,29.76,12.0,WNW,10.4,-,N/A,,Mostly Cloudy,300,2014-01-06 21:19:00
4:56 PM,42.6,39.2,88,29.77,12.0,WNW,4.6,-,N/A,,Mostly Cloudy,290,2014-01-06 21:56:00
5:56 PM,41.2,39.7,95,29.81,12.0,West,3.5,-,N/A,,Mostly Cloudy,270,2014-01-06 22:56:00
6:01 PM,41.0,39.2,93,29.82,12.0,West,3.5,-,N/A,,Mostly Cloudy,270,2014-01-06 23:01:00
6:56 PM,42.6,35.4,76,29.85,12.0,NW,12.7,23.0,N/A,,Mostly Cloudy,310,2014-01-06 23:56:00
7:56 PM,39.0,26.6,61,29.90,12.0,WNW,15.0,20.7,N/A,,Mostly Cloudy,290,2014-01-07 00:56:00
8:56 PM,37.8,23.0,55,29.95,12.0,WNW,16.1,25.3,N/A,,Scattered Clouds,290,2014-01-07 01:56:00
9:56 PM,35.1,23.5,63,29.97,12.0,WNW,11.5,19.6,N/A,,Clear,300,2014-01-07 02:56:00
10:56 PM,33.6,18.7,54,30.00,12.0,WNW,15.0,27.6,N/A,,Clear,300,2014-01-07 03:56:00
11:56 PM,31.5,17.2,56,30.04,12.0,WNW,16.1,26.5,N/A,,Clear,290,2014-01-07 04:56:00